CAPE
134 129 124 182 153 293 227 307 244 107 102 94 68 46 20 22 20 5 4 0 19 32 159 280 288 211 138
211 191 145 112 79 161 215 228 304 181 138 139 132 86 72 51 35 21 3 8 2 11 22 48 111 158 161
311 292 230 260 110 162 210 276 264 148 130 111 103 101 97 66 35 18 8 0 0 0 19 26 33 18 67
121 47 131 205 145 128 175 345 374 224 87 87 65 44 73 78 44 21 17 12 8 8 13 9 1 7 18
49 37 59 63 103 132 304 370 391 313 245 135 76 54 20 6 12 3 0 0 0 0 5 3 0 19 27
94 135 100 104 169 165 304 252 207 293 289 243 192 107 118 69 15 0 0 0 0 0 2 19 35 46 20
240 206 163 189 259 245 287 309 279 220 236 187 251 182 166 69 3 0 4 8 0 0 0 26 70 101 53
99 130 86 45 48 116 147 139 156 79 65 66 126 165 92 10 7 5 3 16 32 16 0 0 1 30 50
16 16 11 17 24 45 60 24 8 16 22 22 8 3 13 24 48 13 12 26 29 27 16 0 2 7 18
54 14 5 2 1 0 1 32 55 0 15 25 7 1 7 20 29 22 16 10 32 18 14 38 36 25 11
0 0 0 0 0 0 0 0 1 11 16 18 4 0 12 13 1 7 0 0 4 18 29 39 17 33 13
2 9 8 5 4 3 0 7 3 17 11 0 2 1 0 1 3 9 4 3 5 4 9 20 16 22 18
0 0 0 0 6 9 2 0 0 5 1 2 4 4 0 0 0 0 0 2 8 4 2 0 3 1 2
0 0 0 0 0 0 0 0 0 0 0 0 0 0 0 0 0 0 0 0 0 0 0 0 0 0 0
0 0 0 0 0 0 0 0 0 0 0 0 0 0 0 0 0 0 0 0 0 0 0 0 0 0 0
0 0 0 0 0 0 0 0 0 0 0 0 0 0 0 0 0 0 0 0 0 0 0 0 0 0 0
0 0 0 0 0 0 0 0 0 0 0 0 0 0 0 0 0 0 0 0 0 0 0 0 0 0 0
CIN
0 0 -8 -12 -3 -8 -3 -1 -6 -49 -30 -38 -42 -48 -30 -51 -53 -23 -17 0 -89 -78 -15 -1 -4 -7 -19
0 0 -1 -15 -35 -2 0 -9 -4 -5 -39 -33 -26 -23 -18 -11 -12 -31 -16 -33 -30 -63 -40 -56 -24 -14 -14
0 0 0 -2 -23 -18 -3 -1 -1 -12 -24 -30 -30 -28 -26 -22 -17 -24 -44 0 0 0 -5 -19 -36 -110 -62
-15 -32 -5 -4 -15 -9 -1 -6 -3 -6 -37 -27 -28 -24 -18 -25 -30 -27 -28 -25 -18 -4 -1 -4 -29 -33 -18
-8 -5 -3 -5 -3 -18 -2 0 0 0 0 -2 -25 -31 -31 -8 -7 -5 0 -6 0 0 -8 -46 -38 -25 -13
-9 -3 -9 -18 -9 -15 -1 0 0 0 0 -1 -17 -11 -1 -24 -54 0 0 0 0 0 -26 -10 -9 -6 -27
-1 -4 -6 -5 -3 -1 0 0 0 -1 -2 0 0 0 -4 -19 -7 0 -21 -57 0 0 0 -5 0 0 0
0 0 -4 -15 -12 -2 0 0 -5 -1 -1 -1 -5 0 0 -2 -14 -6 -26 -18 -4 -11 0 0 0 0 0
-4 -4 -6 -6 -8 -1 0 0 -1 -1 0 0 0 -1 -6 0 0 -9 -5 0 0 -11 0 0 -1 0 0
0 0 0 -2 -3 0 -3 0 0 0 0 0 -3 -6 0 0 0 0 0 -1 -1 -5 -3 0 0 0 -2
0 0 0 0 0 0 0 0 0 -1 0 0 0 0 0 -1 0 0 0 0 -2 0 0 0 -6 0 -7
0 0 0 0 0 0 0 0 0 0 -1 0 0 0 0 0 0 0 0 -3 0 -2 0 0 0 -2 -1
0 0 0 0 0 0 0 0 0 0 -4 0 0 0 0 0 0 0 0 0 0 0 0 0 0 -1 -2
0 0 0 0 0 0 0 0 0 0 0 0 0 0 0 0 0 0 0 0 0 0 0 0 0 0 0
0 0 0 0 0 0 0 0 0 0 0 0 0 0 0 0 0 0 0 0 0 0 0 0 0 0 0
0 0 0 0 0 0 0 0 0 0 0 0 0 0 0 0 0 0 0 0 0 0 0 0 0 0 0
0 0 0 0 0 0 0 0 0 0 0 0 0 0 0 0 0 0 0 0 0 0 0 0 0 0 0
Wind_Speed
63 60 59 58 57 61 59 63 71 75 70 nan nan nan nan nan nan nan nan nan nan nan 32 24 22 21 24
41 45 51 50 nan 44 55 60 59 63 71 76 77 nan nan nan nan nan nan nan nan nan nan nan 26 24 24
25 37 32 43 46 45 31 52 67 64 66 65 71 72 nan nan nan nan nan nan nan nan nan nan nan nan nan
9 nan 22 27 43 48 36 43 47 62 nan nan nan nan nan nan nan nan nan nan nan nan nan nan nan nan nan
nan nan nan nan 32 42 44 50 47 46 50 54 nan nan nan nan nan nan nan nan nan nan nan nan nan nan nan
nan 8 10 17 24 27 36 40 46 48 46 46 48 53 57 nan nan nan nan nan nan nan nan nan nan nan nan
12 11 10 16 27 27 27 34 36 42 43 49 54 50 52 nan nan nan nan nan nan nan nan nan nan 41 nan
nan 22 nan nan nan 24 25 26 29 nan nan nan 46 42 nan nan nan nan nan nan nan nan nan nan nan nan nan
nan nan nan nan nan nan nan nan nan nan nan nan nan nan nan nan nan nan nan nan nan nan nan nan nan nan nan
nan nan nan nan nan nan nan nan nan nan nan nan nan nan nan nan nan nan nan nan nan nan nan nan nan nan nan
nan nan nan nan nan nan nan nan nan nan nan nan nan nan nan nan nan nan nan nan nan nan nan nan nan nan nan
nan nan nan nan nan nan nan nan nan nan nan nan nan nan nan nan nan nan nan nan nan nan nan nan nan nan nan
nan nan nan nan nan nan nan nan nan nan nan nan nan nan nan nan nan nan nan nan nan nan nan nan nan nan nan
nan nan nan nan nan nan nan nan nan nan nan nan nan nan nan nan nan nan nan nan nan nan nan nan nan nan nan
nan nan nan nan nan nan nan nan nan nan nan nan nan nan nan nan nan nan nan nan nan nan nan nan nan nan nan
nan nan nan nan nan nan nan nan nan nan nan nan nan nan nan nan nan nan nan nan nan nan nan nan nan nan nan
nan nan nan nan nan nan nan nan nan nan nan nan nan nan nan nan nan nan nan nan nan nan nan nan nan nan nan
Wind_Direction
250 246 243 241 235 242 244 245 245 250 249 nan nan nan nan nan nan nan nan nan nan nan 253 241 245 262 270
240 241 240 239 nan 221 238 239 242 246 251 252 257 nan nan nan nan nan nan nan nan nan nan nan 257 252 254
239 235 235 231 227 225 226 237 240 241 252 251 252 256 nan nan nan nan nan nan nan nan nan nan nan nan nan
214 nan 233 231 233 229 225 237 239 244 nan nan nan nan nan nan nan nan nan nan nan nan nan nan nan nan nan
nan nan nan nan 234 234 236 239 238 236 244 247 nan nan nan nan nan nan nan nan nan nan nan nan nan nan nan
nan 252 235 239 246 237 240 245 243 244 244 248 252 251 252 nan nan nan nan nan nan nan nan nan nan nan nan
215 227 233 233 236 234 238 233 238 240 248 246 251 251 252 nan nan nan nan nan nan nan nan nan nan 251 nan
nan 239 nan nan nan 234 234 241 241 nan nan nan 247 250 nan nan nan nan nan nan nan nan nan nan nan nan nan
nan nan nan nan nan nan nan nan nan nan nan nan nan nan nan nan nan nan nan nan nan nan nan nan nan nan nan
nan nan nan nan nan nan nan nan nan nan nan nan nan nan nan nan nan nan nan nan nan nan nan nan nan nan nan
nan nan nan nan nan nan nan nan nan nan nan nan nan nan nan nan nan nan nan nan nan nan nan nan nan nan nan
nan nan nan nan nan nan nan nan nan nan nan nan nan nan nan nan nan nan nan nan nan nan nan nan nan nan nan
nan nan nan nan nan nan nan nan nan nan nan nan nan nan nan nan nan nan nan nan nan nan nan nan nan nan nan
nan nan nan nan nan nan nan nan nan nan nan nan nan nan nan nan nan nan nan nan nan nan nan nan nan nan nan
nan nan nan nan nan nan nan nan nan nan nan nan nan nan nan nan nan nan nan nan nan nan nan nan nan nan nan
nan nan nan nan nan nan nan nan nan nan nan nan nan nan nan nan nan nan nan nan nan nan nan nan nan nan nan
nan nan nan nan nan nan nan nan nan nan nan nan nan nan nan nan nan nan nan nan nan nan nan nan nan nan nan